Regional Weather Roundup
Issued by NWS

Home | Current Version | Previous Version | Graphics & Text | Print | Product List | Glossary Off
Versions: 1 2 3 4 5 6 7 8 9 10 11 12 13 14 15 16 17 18 19 20 21 22 23 24 25 26 27 28 29 30 31 32 33 34 35 36 37 38 39 40 41 42 43 44 45 46 47 48 49 50

000
ASUS43 KTOP 201859
RWRKS

WEATHER ROUNDUP FOR KANSAS
NATIONAL WEATHER SERVICE GOODLAND KS
200 PM CDT MON OCT 20 2014

NOTE:  "FAIR" INDICATES FEW OR NO CLOUDS BELOW 12,000 FEET WITH NO
SIGNIFICANT WEATHER AND/OR OBSTRUCTIONS TO VISIBILITY.

KSZ001>006-013>018-027>032-041>047-202000-
NORTHWEST KANSAS

CITY           SKY/WX    TMP DP  RH WIND       PRES   REMARKS
GOODLAND       SUNNY     73  41  31 SE14      30.14F
HAYS           SUNNY     75  48  38 E6        30.09F
HILL CITY      SUNNY     77  41  27 VRB5      30.10F
RUSSELL        SUNNY     77  49  37 NE6       30.08F
$$

KSZ061>065-074>080-084>089-202000-
SOUTHWEST KANSAS

CITY           SKY/WX    TMP DP  RH WIND       PRES   REMARKS
DODGE CITY     SUNNY     75  47  36 E13       30.11F
ELKHART          N/A     72  52  49 E12         N/A
GARDEN CITY    SUNNY     74  45  35 E15       30.11F
GREAT BEND     SUNNY     75  52  43 NE7       30.08F
LIBERAL        SUNNY     73  55  53 E13       30.12F
$$

KSZ066>073-081>083-090>101-202000-
SOUTHEAST KANSAS

CITY           SKY/WX    TMP DP  RH WIND       PRES   REMARKS
CHANUTE        SUNNY     75  57  53 NE5       30.03F
COFFEYVILLE    SUNNY     75  59  57 E6        30.03F
HUTCHINSON     SUNNY     80  48  32 NE8       30.06F
NEWTON         SUNNY     75  46  35 NE12G17   30.08F
PARSONS        SUNNY     76  58  53 CALM      30.04F
WICHITA INTL   SUNNY     79  49  34 NE8       30.04F
WICHITA JABRA  SUNNY     78  47  33 NE8       30.04F
WINFIELD       SUNNY     77  59  53 NE8       30.04F
$$

KSZ007>012-019>026-033>040-048>060-102>105-202000-
NORTHEAST KANSAS

CITY           SKY/WX    TMP DP  RH WIND       PRES   REMARKS
CONCORDIA      SUNNY     75  46  35 NE8       30.08F
EMPORIA        SUNNY     76  50  40 VRB7      30.04F
LAWRENCE       SUNNY     72  49  44 CALM      30.05F
MANHATTAN      SUNNY     76  48  37 NE6       30.06F
OLATHE IND     SUNNY     72  51  47 N8        30.05F
OLATHE EXE     SUNNY     72  49  44 VRB7      30.04F
SALINA         SUNNY     76  49  38 NE6       30.07F
TOPEKA BILLARD SUNNY     74  50  42 NE5       30.05F
TOPEKA FORBES  SUNNY     73  52  47 VRB6      30.05F
$$


USA.gov is the U.S. government's official web portal to all federal, state and local government web resources and services.